Location: Zagreb
(45.8000°N, 16.0000°E)
Time: 19:52:24
(UTC+02:00)

SR - Pass Details

Date: 19 August 2020
Orbit: 583 x 873 km, 66.7° (Epoch: 28 September)

Event Time Altitude Azimuth Distance (km) Brightness Sun altitude
Rises 03:45:39 0° 335° (NNW) 2,825 ? -20.6°
Reaches altitude 10° 03:48:15 10° 351° (N) 1,939 ? -20.3°
Maximum altitude 03:51:43 23° 44° (NE) 1,325 ? -19.9°
Drops below altitude 10° 03:55:18 10° 96° (E) 2,018 ? -19.4°
Sets 03:58:04 0° 112° (ESE) 2,972 ? -19.1°
